Tracking 25372 objects as of 23-Jan-2022
HD Live streaming from Space Station
objects crossing your sky now

INSAT 2R (ARABSAT 1C)

Track INSAT 2R (ARABSAT 1C) now!
INSAT 2R (ARABSAT 1C) is classified as:


NORAD ID: 21894
Int'l Code: 1992-010B
Perigee: 36,131.1 km
Apogee: 36,359.9 km
Inclination: 13.1 °
Period: 1,459.2 minutes
Semi major axis: 42616 km
RCS: 2.2387 m2 (large)
Launch date: February 26, 1992
Source: India (IND)
Launch site: FRENCH GUIANA (FRGUI)
aabbcc
Your satellite tracking list
Your tracking list is empty




NASA's NSSDC Master Catalog

Two Line Element Set (TLE):
1 21894U 92010B   22022.48587194  .00000021  00000-0  00000-0 0  9993
2 21894  13.1409  22.8853 0026843 241.5594 111.2416  0.98681468108381
Source of the keplerian elements: AFSPC